K3ZED-2 Weather Reports


Display with metric or nautical units.
time (UTC)temp
F
wind
direction
speed
MPH
gust
MPH
rain 1hr
in
rain 24hr
in
rain mn
in
humidity
%
barometer
mb
20260831224520 80 183 0.0 2.0 0.00 0.08 0.07 79 1018.4
20260831223020 81 144 0.0 2.0 0.00 0.08 0.07 78 1018.3
20260831221517 81 158 0.0 0.0 0.00 0.08 0.07 78 1018.5
20260831220017 81 212 0.0 2.0 0.00 0.08 0.07 78 1018.6
20260831214517 82 181 0.0 1.0 0.00 0.08 0.07 76 1018.5
20260831213016 81 178 0.0 0.0 0.00 0.08 0.07 76 1018.5
20260831211528 82 176 0.0 1.0 0.00 0.08 0.07 75 1018.7
20260831210014 82 86 0.0 1.0 0.00 0.08 0.07 76 1018.7
20260831204513 81 34 0.0 1.0 0.00 0.08 0.07 76 1018.8
20260831203018 80 92 0.0 0.0 0.00 0.08 0.07 77 1018.8
20260831201514 80 98 0.0 2.0 0.00 0.08 0.07 76 1019.0
20260831200012 80 109 0.0 1.0 0.00 0.08 0.07 75 1019.0
20260831194512 80 111 0.0 1.0 0.00 0.08 0.07 75 1019.1
20260831193014 81 95 0.0 2.0 0.00 0.08 0.07 74 1019.4
20260831191510 82 83 0.0 2.0 0.00 0.08 0.07 73 1019.5
20260831190008 81 116 0.0 1.0 0.00 0.08 0.07 75 1019.6
20260831184507 81 116 0.0 4.0 0.00 0.12 0.07 74 1019.6
20260831183007 81 166 0.0 1.0 0.00 0.12 0.07 74 1019.7
20260831181507 81 137 0.0 1.0 0.00 0.12 0.07 74 1019.7
20260831180005 80 120 0.0 3.0 0.00 0.12 0.07 76 1019.7
20260831174505 80 114 0.0 2.0 0.00 0.12 0.07 73 1019.9
20260831173003 80 254 0.0 1.0 0.00 0.12 0.07 70 1020.0
20260831171503 80 137 0.0 2.0 0.00 0.12 0.07 71 1020.0
20260831170003 79 82 0.0 2.0 0.00 0.12 0.07 74 1020.1
20260831164501 80 106 0.0 3.0 0.00 0.12 0.07 70 1020.1
20260831163104 79 135 0.0 2.0 0.00 0.12 0.07 72 1020.1
20260831161558 79 99 0.0 5.0 0.00 0.12 0.07 70 1020.3
20260831160056 79 189 0.0 3.0 0.00 0.12 0.07 72 1020.2
20260831154558 78 99 1.0 6.0 0.00 0.12 0.07 74 1020.1
20260831153048 76 130 0.0 3.0 0.00 0.12 0.07 81 1020.2
20260831151544 75 93 0.0 3.0 0.00 0.12 0.07 79 1020.2
20260831150040 74 52 0.0 2.0 0.00 0.12 0.07 83 1020.6
20260831144537 72 97 0.0 2.0 0.00 0.12 0.07 85 1020.7
20260831143039 72 100 0.0 3.0 0.00 0.12 0.07 86 1020.7
20260831141533 71 94 0.0 3.0 0.00 0.12 0.07 87 1020.7
20260831140033 71 50 1.0 5.0 0.00 0.12 0.07 86 1020.5
20260831134531 71 60 0.0 1.0 0.00 0.12 0.07 88 1020.5
20260831133029 71 108 0.0 1.0 0.00 0.12 0.07 90 1020.3
20260831131542 70 106 0.0 2.0 0.00 0.12 0.07 91 1020.4
20260831130028 70 89 0.0 1.0 0.00 0.12 0.07 93 1020.5
20260831124529 69 44 0.0 2.0 0.00 0.12 0.07 93 1020.5
20260831123029 69 77 0.0 0.0 0.00 0.12 0.07 94 1020.4
20260831121525 70 86 0.0 0.0 0.00 0.12 0.07 94 1020.2
20260831120025 69 91 0.0 1.0 0.00 0.12 0.07 95 1020.2
20260831114523 69 79 0.0 1.0 0.00 0.12 0.07 95 1020.1
20260831113022 69 68 0.0 2.0 0.00 0.12 0.07 95 1020.0
20260831111519 69 31 0.0 1.0 0.00 0.12 0.07 94 1019.9
20260831110018 69 71 0.0 1.0 0.00 0.12 0.07 94 1019.4
20260831104517 69 52 0.0 1.0 0.00 0.12 0.07 94 1019.5
20260831103016 69 29 0.0 0.0 0.00 0.12 0.07 94 1019.5
20260831101516 69 26 0.0 1.0 0.01 0.12 0.07 94 1019.7
20260831100013 70 150 0.0 0.0 0.01 0.12 0.07 94 1019.4
20260831094514 70 150 0.0 0.0 0.01 0.12 0.07 94 1019.3
20260831093014 70 149 0.0 1.0 0.01 0.12 0.07 94 1019.1
20260831091512 70 221 0.0 1.0 0.00 0.11 0.06 94 1019.1
20260831090012 70 241 0.0 0.0 0.00 0.11 0.06 94 1018.8
20260831084512 70 241 0.0 0.0 0.00 0.11 0.06 94 1018.8
20260831083016 70 241 0.0 1.0 0.00 0.11 0.06 94 1018.7
20260831081510 70 241 0.0 1.0 0.00 0.11 0.06 93 1018.6
20260831080009 70 241 0.0 1.0 0.00 0.11 0.06 94 1018.5
20260831074508 70 241 0.0 1.0 0.00 0.11 0.06 94 1018.7
20260831073013 70 241 0.0 1.0 0.00 0.11 0.06 93 1018.6
20260831071507 70 1 0.0 1.0 0.00 0.11 0.06 93 1018.7
20260831070018 70 29 0.0 5.0 0.00 0.11 0.06 93 1018.7
20260831064506 70 47 0.0 3.0 0.02 0.11 0.06 93 1018.7
20260831063003 70 32 1.0 4.0 0.04 0.11 0.06 92 1018.7
20260831061502 70 52 1.0 3.0 0.06 0.11 0.06 92 1018.9
20260831060000 71 306 0.0 2.0 0.06 0.11 0.06 92 1019.2
20260831054559 71 62 1.0 4.0 0.04 0.09 0.04 93 1019.3
20260831053058 71 315 0.0 4.0 0.02 0.07 0.02 93 1019.4
20260831051555 70 325 0.0 0.0 0.00 0.05 0.00 92 1019.3
20260831050050 70 41 0.0 0.0 0.00 0.05 0.00 91 1019.2
20260831044550 70 83 0.0 1.0 0.01 0.05 0.00 91 1019.4
20260831043045 71 150 0.0 0.0 0.01 0.05 0.00 91 1019.1
20260831041637 71 239 0.0 0.0 0.01 0.05 0.00 90 1019.4
20260831040040 71 239 0.0 0.0 0.01 0.05 0.00 89 1019.6
20260831034539 71 341 0.0 0.0 0.00 0.04 0.04 87 1019.7
20260831033039 72 77 0.0 9.0 0.00 0.04 0.04 86 1019.6
20260831031538 73 54 0.0 2.0 0.00 0.04 0.04 87 1019.5
20260831030038 74 91 0.0 2.0 0.00 0.04 0.04 90 1019.6
20260831024551 73 27 0.0 2.0 0.00 0.04 0.04 91 1019.9
20260831023036 73 250 0.0 0.0 0.00 0.04 0.04 90 1019.8
20260831021547 74 250 0.0 0.0 0.00 0.04 0.04 90 1019.7
20260831020035 74 250 0.0 0.0 0.00 0.04 0.04 90 1019.5
20260831014536 74 250 0.0 0.0 0.00 0.04 0.04 89 1019.4
20260831013035 74 250 0.0 0.0 0.00 0.04 0.04 89 1019.6
20260831011545 74 188 0.0 0.0 0.00 0.04 0.04 89 1019.7
20260831010038 75 188 0.0 0.0 0.00 0.04 0.04 88 1019.5
20260831004535 75 188 0.0 1.0 0.00 0.04 0.04 88 1019.3
20260831003036 75 175 0.0 0.0 0.00 0.04 0.04 87 1019.2
20260831001534 76 175 0.0 0.0 0.00 0.04 0.04 86 1018.9
20260831000038 76 189 0.0 0.0 0.00 0.04 0.04 85 1018.9
20260830234532 77 189 0.0 0.0 0.00 0.04 0.04 84 1018.7
20260830233035 78 187 0.0 0.0 0.00 0.04 0.04 83 1019.0
20260830231531 79 185 0.0 0.0 0.00 0.04 0.04 82 1019.0
20260830230036 79 184 0.0 1.0 0.00 0.04 0.04 79 1018.8